Change the Weather History Date:

Monday, September 15, 2014

  Actual Average Record
Temperature  
Mean Temperature 70 °F 72 °F  
Max Temperature 78 °F 85 °F 99 °F (1956)
Min Temperature 62 °F 59 °F 42 °F (1993)
Degree Days  
Heating Degree Days 0 1  
Month to date heating degree days 25 2  
Since 1 July heating degree days 25 2  
Cooling Degree Days 5 7  
Month to date cooling degree days 142 141  
Year to date cooling degree days 1771 1667  
Growing Degree Days 20 (Base 50)    
Moisture  
Dew Point 62 °F    
Average Humidity 77    
Maximum Humidity 93    
Minimum Humidity 60    
Precipitation  
Precipitation 0.00 in 0.08 in 4.69 in (1995)
Month to date precipitation 1.71 1.29  
Year to date precipitation 13.61 14.36  
Snow  
Snow 0.00 in 0.00 in 0.00 in (2002)
Month to date snowfall 0.0 0.0  
Since 1 July snowfall 0.0 0.0  
Since 1 September snowfall 0.0 0.0  
Snow Depth 0.00 in    
Sea Level Pressure  
Sea Level Pressure 30.11 in    
Wind  
Wind Speed 9 mph (SSW)    
Max Wind Speed 20 mph    
Max Gust Speed 23 mph    
Visibility 10 miles    
Events      
T = Trace of Precipitation, MM = Missing Value Source: NWS Daily Summary

Daily Weather History Graph

Daily Weather History Graph

Search for Another Location

Airport or City:

Trip Planner

Search our weather history database for the weather conditions in past years. The results will help you decide how hot, cold, wet, or windy it might be!

Date:

Astronomy

Sep. 15, 2014 Rise Set
Actual Time 7:30 AM CDT 7:53 PM CDT
Civil Twilight 7:05 AM CDT 8:18 PM CDT
Nautical Twilight 6:36 AM CDT 8:47 PM CDT
Astronomical Twilight 6:06 AM CDT 9:17 PM CDT
Moon 12:05 AM CDT (9/15) 2:15 PM CDT (9/15)
Length of Visible Light 13h 12m
Length of Day
12h 22m
Waning Gibbous, 54% of the Moon is Illuminated
Sep 15
Waning Gibbous
Sep 15
Last Quarter
Sep 24
New
Oct 1
First Quarter
Oct 8
Full

Hourly Weather History & Observations

Time (CDT) Temp. Dew Point Humidity Pressure Visibility Wind Dir Wind Speed Gust Speed Precip Events Conditions
12:53 AM 62.1 °F 60.1 °F 93% 30.08 in 10.0 mi SSW 12.7 mph - N/A   Overcast
1:53 AM 62.1 °F 59.0 °F 90% 30.09 in 10.0 mi SW 10.4 mph - N/A   Overcast
2:53 AM 63.0 °F 60.1 °F 90% 30.10 in 10.0 mi SW 11.5 mph - N/A   Scattered Clouds
3:46 AM 63.0 °F 60.1 °F 90% 30.19 in 10.0 mi WSW 5.8 mph - N/A   Overcast
3:53 AM 63.0 °F 60.1 °F 90% 30.10 in 10.0 mi SW 6.9 mph - N/A   Overcast
4:47 AM 62.6 °F 60.8 °F 94% 30.19 in 10.0 mi SW 8.1 mph - N/A   Overcast
4:53 AM 63.0 °F 60.1 °F 90% 30.09 in 10.0 mi SW 8.1 mph - N/A   Overcast
5:45 AM 63.0 °F 61.0 °F 93% 30.18 in 10.0 mi SW 8.1 mph - N/A   Overcast
5:53 AM 63.0 °F 61.0 °F 93% 30.09 in 10.0 mi SW 8.1 mph - N/A   Overcast
6:38 AM 63.0 °F 61.0 °F 93% 30.19 in 10.0 mi SW 9.2 mph - N/A   Mostly Cloudy
6:53 AM 63.0 °F 60.1 °F 90% 30.09 in 9.0 mi SW 6.9 mph - N/A   Mostly Cloudy
7:53 AM 64.0 °F 61.0 °F 90% 30.10 in 8.0 mi SSW 6.9 mph - N/A   Mostly Cloudy
8:01 AM 64.0 °F 61.0 °F 90% 30.20 in 10.0 mi SW 6.9 mph - N/A   Mostly Cloudy
8:53 AM 64.9 °F 62.1 °F 90% 30.10 in 10.0 mi SSW 8.1 mph - N/A   Mostly Cloudy
9:45 AM 66.9 °F 62.1 °F 84% 30.21 in 10.0 mi SW 11.5 mph - N/A   Overcast
9:53 AM 68.0 °F 62.1 °F 81% 30.11 in 10.0 mi SW 11.5 mph - N/A   Overcast
10:53 AM 71.1 °F 62.1 °F 73% 30.11 in 10.0 mi SSW 19.6 mph - N/A   Mostly Cloudy
11:53 AM 73.0 °F 63.0 °F 71% 30.10 in 10.0 mi SSW 17.3 mph - N/A   Overcast
12:00 PM 75.2 °F 62.6 °F 65% 30.21 in 10.0 mi SSW 13.8 mph - N/A   Mostly Cloudy
12:18 PM 73.9 °F 62.1 °F 66% 30.21 in 10.0 mi SW 18.4 mph - N/A   Mostly Cloudy
12:53 PM 73.9 °F 62.1 °F 66% 30.09 in 10.0 mi SSW 16.1 mph - N/A   Mostly Cloudy
1:53 PM 75.0 °F 62.1 °F 64% 30.08 in 10.0 mi SW 10.4 mph 19.6 mph N/A   Mostly Cloudy
2:53 PM 77.0 °F 62.1 °F 60% 30.06 in 10.0 mi South 12.7 mph - N/A   Mostly Cloudy
3:53 PM 75.9 °F 62.1 °F 62% 30.04 in 10.0 mi SW 9.2 mph - N/A   Overcast
4:53 PM 75.9 °F 62.1 °F 62% 30.05 in 10.0 mi SW 4.6 mph - N/A   Overcast
5:53 PM 73.9 °F 62.1 °F 66% 30.06 in 10.0 mi South 8.1 mph - N/A   Overcast
6:53 PM 73.9 °F 62.1 °F 66% 30.06 in 10.0 mi South 8.1 mph - N/A   Overcast
7:53 PM 73.0 °F 63.0 °F 71% 30.07 in 10.0 mi SSE 5.8 mph - N/A   Mostly Cloudy
8:53 PM 71.1 °F 64.0 °F 78% 30.09 in 10.0 mi South 4.6 mph - N/A   Mostly Cloudy
9:53 PM 71.1 °F 64.0 °F 78% 30.10 in 10.0 mi Calm Calm - N/A   Overcast
10:53 PM 70.0 °F 64.9 °F 84% 30.12 in 10.0 mi NE 4.6 mph - N/A   Overcast
11:53 PM 69.1 °F 64.9 °F 87% 30.12 in 9.0 mi NE 4.6 mph - N/A   Overcast